No particular awareness of the weather is required.    There are no Weather-warnings


Meteo18 Weather Cam more information Meteo18 Weather Cam


Thunder radar more information blitzortung!


Rain radar more information rain snow radar


Visit our other weather sites:

Template documentation
and downloads

And another site



Weather Underground History page Text

Daily Summary for December 31, 2017 Units:  Metric    English   Both
« Previous Day
Next Day »
Daily Weekly Monthly Yearly Custom
  High: Low: Average:
Temperature: -17.8 °C -13.2 °C -11.4 °C
Dew Point: -17.8 °C -14.3 °C -12.8 °C
Humidity: Humidity % 64 % 84 %
Wind Speed: 0 km/h 5.1 km/h 25.6 km/h
Wind Gust: 0 km/h - -
Wind:- - SW
Pressure: 0 hPa 34097 hPa -
Precipitation: 116.84 mm    
Historical Graphs
 
 
Tabular Data for December 31, 2017
Time Temperature Dew Point Pressure Wind Wind Speed Wind Gust Humidity Rainfall Rate (Hourly)
-17.8 °C -17.8 °C 0 hPa Calm     Humidity % 0 mm
00:02 -11 °C -12 °C 34452.6 hPa SSW 26.2 km/h 44.1 km/h 89 % 0 mm
00:08 -11.1 °C -12.1 °C 34452.6 hPa SW 31.4 km/h 46.7 km/h 89 % 0 mm
00:14 -11.1 °C -11.9 °C 34452.6 hPa SW 17.9 km/h 31.1 km/h 90 % 0 mm
00:20 -11.2 °C -12.1 °C 34462.7 hPa SW 26.2 km/h 38.8 km/h 90 % 0 mm
00:26 -11.2 °C -12 °C 34452.6 hPa SSW 20.9 km/h 41.4 km/h 91 % 0 mm
00:32 -11.3 °C -12.1 °C 34452.6 hPa SW 28.5 km/h 33.6 km/h 92 % 0 mm
00:38 -11.4 °C -12.1 °C 34452.6 hPa SW 28.5 km/h 31.1 km/h 93 % 0 mm
00:44 -11.4 °C -11.9 °C 34452.6 hPa SW 36.5 km/h 38.8 km/h 94 % 0 mm
00:50 -11.4 °C -11.9 °C 34452.6 hPa WSW 12.7 km/h 36.2 km/h 94 % 0 mm
00:56 -11.5 °C -12 °C 34452.6 hPa SW 20.9 km/h 36.2 km/h 94 % 0 mm
01:02 -11.5 °C -12 °C 34452.6 hPa SW 17.9 km/h 25.9 km/h 94 % 0 mm
01:08 -11.5 °C -11.9 °C 34452.6 hPa WSW 10.3 km/h 15.6 km/h 95 % 0 mm
01:12 -11.5 °C -11.9 °C 34452.6 hPa SW 17.9 km/h 20.8 km/h 95 % 0 mm
01:19 -11.5 °C -11.9 °C 34442.4 hPa SW 26.2 km/h 38.8 km/h 95 % 0 mm
01:24 -11.5 °C -12 °C 34442.4 hPa SSW 26.2 km/h 33.6 km/h 94 % 0 mm
01:30 -11.4 °C -11.9 °C 34442.4 hPa WSW 15.6 km/h 33.6 km/h 94 % 0 mm
01:37 -11.4 °C -12.1 °C 34442.4 hPa SW 23 km/h 31.1 km/h 93 % 0 mm
01:42 -11.4 °C -12.1 °C 34442.4 hPa SSW 15.6 km/h 36.2 km/h 93 % 0 mm
01:49 -11.4 °C -12 °C 34442.4 hPa WSW 17.9 km/h 33.6 km/h 93 % 0 mm
01:55 -11.3 °C -12.1 °C 34442.4 hPa SW 15.6 km/h 31.1 km/h 92 % 0 mm
02:01 -11.3 °C -12.1 °C 34428.8 hPa WSW 17.9 km/h 25.9 km/h 92 % 0 mm
02:07 -11.3 °C -12.1 °C 34428.8 hPa SW 28.5 km/h 36.2 km/h 92 % 0 mm
02:13 -11.3 °C -12.1 °C 34428.8 hPa SSW 12.7 km/h 36.2 km/h 91 % 0 mm
02:19 -11.3 °C -12.1 °C 34428.8 hPa SW 17.9 km/h 31.1 km/h 91 % 0 mm
02:25 -11.3 °C -12.1 °C 34428.8 hPa SW 26.2 km/h 31.1 km/h 91 % 0 mm
02:31 -11.3 °C -12.1 °C 34428.8 hPa SW 17.9 km/h 33.6 km/h 91 % 0 mm
02:35 -11.3 °C -12.1 °C 34428.8 hPa SW 20.9 km/h 33.6 km/h 91 % 0 mm
02:41 -11.3 °C -12.1 °C 34418.7 hPa SW 20.9 km/h 31.1 km/h 91 % 0 mm
02:45 -11.3 °C -12.1 °C 34428.8 hPa SW 15.6 km/h 36.2 km/h 91 % 0 mm
02:51 -11.3 °C -12.2 °C 34428.8 hPa SW 20.9 km/h 28.5 km/h 90 % 0 mm
02:57 -11.2 °C -12.1 °C 34428.8 hPa SW 26.2 km/h 41.4 km/h 90 % 0 mm
03:03 -11.2 °C -12.2 °C 34428.8 hPa SSW 26.2 km/h 41.4 km/h 89 % 0 mm
03:07 -11.2 °C -12.1 °C 34428.8 hPa SSW 15.6 km/h 25.9 km/h 90 % 0 mm
03:13 -11.3 °C -12.2 °C 34428.8 hPa SSW 26.2 km/h 26.2 km/h 90 % 0 mm
03:19 -11.3 °C -12.1 °C 34428.8 hPa SW 15.6 km/h 23.3 km/h 91 % 0 mm
03:23 -11.3 °C -12.1 °C 34428.8 hPa SSW 20.9 km/h 25.9 km/h 91 % 0 mm
03:29 -11.3 °C -12.1 °C 34418.7 hPa SW 36.5 km/h 36.5 km/h 91 % 0 mm
03:35 -11.3 °C -12.1 °C 34418.7 hPa SSW 20.9 km/h 36.2 km/h 91 % 0 mm
03:41 -11.3 °C -12.2 °C 34418.7 hPa SSW 15.6 km/h 41.4 km/h 90 % 0 mm
03:47 -11.3 °C -12.2 °C 34405.1 hPa SW 44.1 km/h 44.1 km/h 90 % 0 mm
03:53 -11.2 °C -12.2 °C 34405.1 hPa SSW 12.7 km/h 36.2 km/h 89 % 0 mm
03:59 -11.2 °C -12.2 °C 34405.1 hPa South 17.9 km/h 31.1 km/h 89 % 0 mm
04:05 -11.3 °C -12.3 °C 34405.1 hPa SW 26.2 km/h 31.1 km/h 89 % 0 mm
04:07 -11.3 °C -12.3 °C 34405.1 hPa South 12.7 km/h 36.2 km/h 89 % 0 mm
04:15 -11.2 °C -12.2 °C 34405.1 hPa SSW 17.9 km/h 31.1 km/h 88 % 0 mm
04:23 -11.2 °C -12.2 °C 34405.1 hPa SW 33.6 km/h 36.2 km/h 88 % 0 mm
04:29 -11.2 °C -12.3 °C 34405.1 hPa SSW 23 km/h 41.4 km/h 87 % 0 mm
04:35 -11.2 °C -12.3 °C 34405.1 hPa SW 23 km/h 36.2 km/h 87 % 0 mm
04:41 -11.2 °C -12.2 °C 34405.1 hPa SSW 15.6 km/h 38.8 km/h 88 % 0 mm
04:43 -11.2 °C -12.2 °C 34405.1 hPa SW 26.2 km/h 38.8 km/h 88 % 0 mm
04:49 -11.2 °C -12.3 °C 34405.1 hPa WSW 23 km/h 31.1 km/h 87 % 0 mm
04:55 -11.2 °C -12.3 °C 34395 hPa WSW 28.5 km/h 36.2 km/h 88 % 0 mm
05:01 -11.2 °C -12.3 °C 34395 hPa SSW 17.9 km/h 28.5 km/h 88 % 0 mm
05:07 -11.3 °C -12.3 °C 34395 hPa SW 12.7 km/h 36.2 km/h 88 % 0 mm
05:13 -11.2 °C -12.4 °C 34395 hPa South 20.9 km/h 33.6 km/h 87 % 0 mm
05:19 -11.2 °C -12.4 °C 34384.8 hPa SW 20.9 km/h 31.1 km/h 87 % 0 mm
05:25 -11.2 °C -12.4 °C 34384.8 hPa SW 28.5 km/h 28.5 km/h 87 % 0 mm
05:31 -11.3 °C -12.4 °C 34384.8 hPa SSW 12.7 km/h 25.9 km/h 87 % 0 mm
05:37 -11.4 °C -12.5 °C 34371.3 hPa South 15.6 km/h 15.6 km/h 88 % 0 mm
05:43 -11.5 °C -12.6 °C 34371.3 hPa SSW 12.7 km/h 20.8 km/h 88 % 0 mm
05:49 -11.5 °C -12.4 °C 34371.3 hPa SW 10.3 km/h 18.2 km/h 89 % 0 mm
05:55 -11.6 °C -12.5 °C 34371.3 hPa SSE 5.1 km/h 18.2 km/h 89 % 0 mm
05:57 -11.6 °C -12.5 °C 34371.3 hPa SSW 7.6 km/h 18.2 km/h 89 % 0 mm
06:03 -11.6 °C -12.5 °C 34371.3 hPa SSW 12.7 km/h 12.9 km/h 89 % 0 mm
06:09 -11.6 °C -12.5 °C 34371.3 hPa SSW 5.1 km/h 12.9 km/h 89 % 0 mm
06:15 -11.6 °C -12.6 °C 34371.3 hPa SSE 7.6 km/h 15.6 km/h 89 % 0 mm
06:21 -11.7 °C -12.6 °C 34361.1 hPa SSW 5.1 km/h 10.3 km/h 89 % 0 mm
06:27 -11.7 °C -12.6 °C 34361.1 hPa South 7.6 km/h 12.9 km/h 90 % 0 mm
06:33 -11.7 °C -12.7 °C 34361.1 hPa South 10.3 km/h 12.9 km/h 89 % 0 mm
06:37 -11.8 °C -12.7 °C 34361.1 hPa SSE 10.3 km/h 12.9 km/h 90 % 0 mm
06:43 -11.8 °C -12.7 °C 34361.1 hPa SSW 10.3 km/h 12.9 km/h 90 % 0 mm
06:49 -11.8 °C -12.7 °C 34361.1 hPa SSW 15.6 km/h 20.8 km/h 90 % 0 mm
06:55 -11.8 °C -12.7 °C 34361.1 hPa South 15.6 km/h 18.2 km/h 90 % 0 mm
07:01 -11.8 °C -12.7 °C 34361.1 hPa South 17.9 km/h 18.2 km/h 90 % 0 mm
07:07 -11.8 °C -12.7 °C 34347.6 hPa SSW 20.9 km/h 23.3 km/h 90 % 0 mm
07:13 -11.8 °C -12.7 °C 34347.6 hPa SW 12.7 km/h 20.8 km/h 90 % 0 mm
07:19 -11.8 °C -12.7 °C 34361.1 hPa SSW 12.7 km/h 20.8 km/h 90 % 0 mm
07:25 -11.8 °C -12.7 °C 34361.1 hPa SSW 17.9 km/h 23.3 km/h 90 % 0 mm
07:31 -11.8 °C -12.8 °C 34361.1 hPa South 20.9 km/h 20.9 km/h 89 % 0 mm
07:37 -11.8 °C -12.8 °C 34347.6 hPa SSW 15.6 km/h 15.6 km/h 89 % 0 mm
07:43 -11.8 °C -12.8 °C 34361.1 hPa SSE 10.3 km/h 15.6 km/h 89 % 0 mm
07:49 -11.9 °C -12.8 °C 34347.6 hPa South 5.1 km/h 15.6 km/h 89 % 0 mm
07:55 -11.9 °C -12.8 °C 34347.6 hPa SSW 12.7 km/h 15.6 km/h 90 % 0 mm
08:01 -11.9 °C -12.8 °C 34347.6 hPa SSW 15.6 km/h 23.3 km/h 89 % 0 mm
08:07 -11.8 °C -12.8 °C 34347.6 hPa SSW 12.7 km/h 28.5 km/h 89 % 0 mm
08:13 -11.8 °C -12.8 °C 34347.6 hPa SW 28.5 km/h 28.5 km/h 89 % 0 mm
08:19 -11.8 °C -12.8 °C 34347.6 hPa SSW 28.5 km/h 28.5 km/h 89 % 0 mm
08:25 -11.8 °C -12.9 °C 34347.6 hPa SSW 10.3 km/h 25.9 km/h 88 % 0 mm
08:29 -11.8 °C -12.9 °C 34347.6 hPa SSW 15.6 km/h 23.3 km/h 88 % 0 mm
08:35 -11.8 °C -12.8 °C 34347.6 hPa SSW 17.9 km/h 23.3 km/h 89 % 0 mm
08:41 -11.8 °C -12.8 °C 34337.4 hPa South 20.9 km/h 31.1 km/h 89 % 0 mm
08:45 -11.8 °C -12.8 °C 34347.6 hPa SW 23 km/h 31.1 km/h 89 % 0 mm
08:51 -11.9 °C -12.8 °C 34347.6 hPa SSW 20.9 km/h 28.5 km/h 89 % 0 mm
08:57 -11.9 °C -12.8 °C 34337.4 hPa SSW 23 km/h 25.9 km/h 89 % 0 mm
09:03 -11.9 °C -12.8 °C 34337.4 hPa SSW 20.9 km/h 36.2 km/h 89 % 0 mm
09:09 -11.9 °C -12.8 °C 34337.4 hPa SSW 17.9 km/h 28.5 km/h 89 % 0 mm
09:13 -11.9 °C -12.9 °C 34327.3 hPa SSW 15.6 km/h 36.2 km/h 88 % 0 mm
09:19 -11.9 °C -13 °C 34337.4 hPa SSW 17.9 km/h 31.1 km/h 88 % 0 mm
09:25 -11.9 °C -12.8 °C 34337.4 hPa South 20.9 km/h 33.6 km/h 89 % 0 mm
09:31 -11.9 °C -12.8 °C 34337.4 hPa SSW 17.9 km/h 25.9 km/h 89 % 0 mm
09:37 -11.8 °C -12.9 °C 34337.4 hPa SW 17.9 km/h 28.5 km/h 88 % 0 mm
09:43 -11.7 °C -12.8 °C 34337.4 hPa SSW 28.5 km/h 31.1 km/h 88 % 0 mm
09:49 -11.7 °C -12.8 °C 34337.4 hPa South 23 km/h 31.1 km/h 87 % 0 mm
09:51 -11.7 °C -12.8 °C 34337.4 hPa South 17.9 km/h 41.4 km/h 88 % 0 mm
09:57 -11.7 °C -12.8 °C 34327.3 hPa SSW 31.4 km/h 41.4 km/h 87 % 0 mm
10:05 -11.6 °C -12.8 °C 34337.4 hPa SSW 17.9 km/h 25.9 km/h 87 % 0 mm
10:11 -11.6 °C -12.8 °C 34327.3 hPa SSW 15.6 km/h 25.9 km/h 87 % 0 mm
10:17 -11.6 °C -12.8 °C 34327.3 hPa SSW 31.4 km/h 31.4 km/h 86 % 0 mm
10:23 -11.6 °C -12.8 °C 34327.3 hPa South 33.6 km/h 33.6 km/h 86 % 0 mm
10:29 -11.5 °C -12.8 °C 34327.3 hPa SSE 15.6 km/h 28.5 km/h 86 % 0 mm
10:35 -11.4 °C -12.8 °C 34313.7 hPa SSW 15.6 km/h 41.4 km/h 85 % 0 mm
10:38 -11.4 °C -12.8 °C 34313.7 hPa SSW 15.6 km/h 41.4 km/h 85 % 0 mm
10:43 -11.3 °C -12.7 °C 34313.7 hPa SSW 23 km/h 33.6 km/h 85 % 0 mm
10:49 -11.3 °C -12.7 °C 34313.7 hPa SSW 28.5 km/h 44.1 km/h 84 % 0 mm
10:52 -11.3 °C -12.7 °C 34313.7 hPa SW 31.4 km/h 38.8 km/h 84 % 0 mm
10:58 -11.2 °C -12.7 °C 34313.7 hPa SSW 28.5 km/h 36.2 km/h 84 % 0 mm
11:04 -11.2 °C -12.6 °C 34303.6 hPa South 36.5 km/h 44.1 km/h 84 % 0 mm
11:10 -11.1 °C -12.6 °C 34303.6 hPa SSW 17.9 km/h 33.6 km/h 84 % 0 mm
11:16 -11.1 °C -12.6 °C 34303.6 hPa SSW 28.5 km/h 46.7 km/h 83 % 0 mm
11:20 -11.1 °C -12.6 °C 34293.4 hPa South 28.5 km/h 46.7 km/h 83 % 0 mm
11:26 -11 °C -12.7 °C 34293.4 hPa SW 28.5 km/h 36.2 km/h 82 % 0 mm
11:30 -11 °C -12.6 °C 34293.4 hPa SSW 28.5 km/h 41.4 km/h 83 % 0 mm
11:38 -10.9 °C -12.6 °C 34293.4 hPa SSW 26.2 km/h 33.6 km/h 82 % 0 mm
11:44 -10.9 °C -12.6 °C 34279.9 hPa SSW 23 km/h 38.8 km/h 82 % 0 mm
11:50 -10.8 °C -12.6 °C 34269.7 hPa SSW 20.9 km/h 49.2 km/h 81 % 0 mm
11:52 -10.8 °C -12.6 °C 34269.7 hPa SSW 28.5 km/h 46.7 km/h 81 % 0 mm
11:58 -10.7 °C -12.5 °C 34256.2 hPa South 28.5 km/h 41.4 km/h 81 % 0 mm
12:04 -10.7 °C -12.4 °C 34256.2 hPa SSW 23 km/h 38.8 km/h 81 % 0 mm
12:10 -10.5 °C -12.5 °C 34256.2 hPa SSW 33.6 km/h 54.4 km/h 79 % 0 mm
12:14 -10.4 °C -12.3 °C 34256.2 hPa SSW 44.1 km/h 51.8 km/h 80 % 0 mm
12:20 -10.3 °C -12.5 °C 34246 hPa SSW 44.1 km/h 62.1 km/h 77 % 0 mm
12:26 -10.2 °C -12.5 °C 34235.8 hPa SW 36.5 km/h 44.1 km/h 76 % 0 mm
12:38 -10.2 °C -12.4 °C 34222.3 hPa SW 20.9 km/h 46.7 km/h 77 % 0 mm
12:44 -10.1 °C -12.6 °C 34222.3 hPa SSW 46.3 km/h 57 km/h 75 % 0 mm
12:50 -10.1 °C -12.4 °C 34212.1 hPa SW 36.5 km/h 49.2 km/h 76 % 0 mm
12:56 -10 °C -12.2 °C 34212.1 hPa SSW 26.2 km/h 44.1 km/h 77 % 0 mm
13:02 -10 °C -12.3 °C 34212.1 hPa SSW 44.1 km/h 49.2 km/h 76 % 0 mm
13:04 -10 °C -12.4 °C 34198.6 hPa SW 23 km/h 38.8 km/h 75 % 0 mm
13:10 -9.9 °C -12.3 °C 34198.6 hPa South 26.2 km/h 49.2 km/h 76 % 0 mm
13:16 -9.9 °C -12.5 °C 34198.6 hPa SSW 28.5 km/h 44.1 km/h 74 % 0 mm
13:22 -9.9 °C -12.5 °C 34188.4 hPa SSW 31.4 km/h 49.2 km/h 74 % 0 mm
13:24 -9.9 °C -12.4 °C 34188.4 hPa SSW 23 km/h 38.8 km/h 75 % 0 mm
13:32 -9.9 °C -12.3 °C 34188.4 hPa SSW 26.2 km/h 44.1 km/h 75 % 0 mm
13:38 -9.9 °C -12.3 °C 34178.3 hPa SSW 12.7 km/h 44.1 km/h 75 % 0 mm
13:44 -9.8 °C -12.3 °C 34178.3 hPa SSW 33.6 km/h 41.4 km/h 75 % 0 mm
13:50 -9.8 °C -12.4 °C 34178.3 hPa SW 23 km/h 44.1 km/h 74 % 0 mm
13:56 -9.8 °C -12.3 °C 34178.3 hPa SSW 20.9 km/h 33.6 km/h 75 % 0 mm
14:02 -9.8 °C -12.3 °C 34164.7 hPa SW 36.5 km/h 44.1 km/h 74 % 0 mm
14:08 -9.8 °C -12.3 °C 34164.7 hPa SSW 36.5 km/h 44.1 km/h 74 % 0 mm
14:14 -9.7 °C -12.2 °C 34164.7 hPa SW 31.4 km/h 46.7 km/h 74 % 0 mm
14:20 -9.7 °C -12.3 °C 34154.6 hPa SW 28.5 km/h 41.4 km/h 73 % 0 mm
14:26 -9.7 °C -12.4 °C 34154.6 hPa SSW 28.5 km/h 41.4 km/h 72 % 0 mm
14:32 -9.8 °C -12.6 °C 34154.6 hPa SW 36.5 km/h 49.2 km/h 72 % 0 mm
14:38 -9.6 °C -12.7 °C 34144.4 hPa SSE 17.9 km/h 57 km/h 69 % 0 mm
14:42 -9.4 °C -12.5 °C 34144.4 hPa SW 28.5 km/h 41.4 km/h 69 % 0 mm
14:48 -9.4 °C -12.5 °C 34144.4 hPa WSW 51.5 km/h 51.8 km/h 69 % 0 mm
14:54 -9.4 °C -13 °C 34144.4 hPa SSW 44.1 km/h 67.3 km/h 65 % 0 mm
15:00 -9.5 °C -13.1 °C 34130.9 hPa SW 51.5 km/h 64.7 km/h 65 % 0 mm
15:06 -9.6 °C -13.1 °C 34130.9 hPa SW 54.4 km/h 62.1 km/h 66 % 0 mm
15:12 -9.5 °C -13.1 °C 34130.9 hPa SSW 44.1 km/h 64.7 km/h 65 % 0 mm
15:18 -9.5 °C -13.3 °C 34130.9 hPa SW 49.2 km/h 64.7 km/h 64 % 0 mm
15:24 -9.6 °C -13.3 °C 34130.9 hPa SW 38.8 km/h 75.2 km/h 64 % 0 mm
15:30 -9.7 °C -13.2 °C 34120.7 hPa WSW 44.1 km/h 49.2 km/h 66 % 0 mm
15:36 -9.7 °C -13.3 °C 34120.7 hPa SW 41.7 km/h 46.7 km/h 65 % 0 mm
15:40 -9.7 °C -13.4 °C 34120.7 hPa SW 33.6 km/h 57 km/h 64 % 0 mm
15:46 -9.9 °C -13.4 °C 34107.2 hPa SW 33.6 km/h 49.2 km/h 66 % 0 mm
15:52 -9.9 °C -13.3 °C 34107.2 hPa SSW 28.5 km/h 49.2 km/h 67 % 0 mm
15:54 -9.9 °C -13.3 °C 34107.2 hPa SW 33.6 km/h 51.8 km/h 67 % 0 mm
16:00 -9.9 °C -13.4 °C 34107.2 hPa SW 46.3 km/h 59.5 km/h 66 % 0 mm
16:06 -10.1 °C -13.3 °C 34097 hPa SSW 38.8 km/h 51.8 km/h 68 % 0 mm
16:12 -10.1 °C -13.3 °C 34107.2 hPa South 31.4 km/h 54.4 km/h 68 % 0 mm
16:18 -10.2 °C -13.3 °C 34107.2 hPa SSW 28.5 km/h 46.7 km/h 69 % 0 mm
16:24 -10.3 °C -13.3 °C 34107.2 hPa SW 44.1 km/h 51.8 km/h 70 % 0 mm
16:30 -10.3 °C -13.3 °C 34107.2 hPa SW 36.5 km/h 41.4 km/h 70 % 0 mm
16:32 -10.4 °C -13.4 °C 34107.2 hPa SW 33.6 km/h 41.4 km/h 70 % 0 mm
16:38 -10.4 °C -13.4 °C 34097 hPa SW 36.5 km/h 49.2 km/h 70 % 0 mm
16:44 -10.6 °C -13.5 °C 34107.2 hPa SSW 20.9 km/h 38.8 km/h 70 % 0 mm
16:50 -10.6 °C -13.6 °C 34107.2 hPa SSW 33.6 km/h 36.2 km/h 70 % 0 mm
16:57 -10.5 °C -13.6 °C 34107.2 hPa SW 33.6 km/h 33.6 km/h 69 % 0 mm
17:02 -10.4 °C -13.6 °C 34107.2 hPa WSW 36.5 km/h 36.5 km/h 69 % 0 mm
17:06 -10.4 °C -13.6 °C 34107.2 hPa WSW 38.8 km/h 46.7 km/h 69 % 0 mm
17:13 -10.5 °C -13.6 °C 34107.2 hPa WSW 26.2 km/h 49.2 km/h 69 % 0 mm
17:19 -10.5 °C -13.4 °C 34107.2 hPa SW 33.6 km/h 46.7 km/h 70 % 0 mm
17:24 -10.6 °C -13.5 °C 34107.2 hPa WSW 33.6 km/h 44.1 km/h 70 % 0 mm
17:30 -10.6 °C -13.6 °C 34107.2 hPa SW 26.2 km/h 46.7 km/h 70 % 0 mm
17:36 -10.7 °C -13.4 °C 34097 hPa SSW 20.9 km/h 44.1 km/h 72 % 0 mm
17:43 -10.7 °C -13.4 °C 34097 hPa WSW 36.5 km/h 46.7 km/h 72 % 0 mm
17:49 -10.7 °C -13.4 °C 34097 hPa SW 33.6 km/h 54.4 km/h 72 % 0 mm
17:55 -10.7 °C -13.4 °C 34097 hPa SW 33.6 km/h 46.7 km/h 72 % 0 mm
18:01 -10.7 °C -13.4 °C 34107.2 hPa SW 20.9 km/h 36.2 km/h 72 % 0 mm
18:06 -10.7 °C -13.4 °C 34107.2 hPa SW 36.5 km/h 51.8 km/h 72 % 0 mm
18:13 -10.7 °C -13.3 °C 34107.2 hPa WSW 33.6 km/h 46.7 km/h 73 % 0 mm
18:19 -10.8 °C -13.1 °C 34120.7 hPa WSW 23 km/h 46.7 km/h 76 % 0 mm
18:25 -11.1 °C -12.9 °C 34120.7 hPa WSW 31.4 km/h 57 km/h 80 % 0 mm
18:31 -11.3 °C -12.9 °C 34130.9 hPa West 26.2 km/h 57 km/h 83 % 7.62 mm
18:37 -11.6 °C -12.8 °C 34130.9 hPa SW 56.6 km/h 57 km/h 86 % 7.62 mm
18:43 -11.7 °C -12.8 °C 34130.9 hPa SW 23 km/h 46.7 km/h 88 % 12.7 mm
18:49 -11.8 °C -12.8 °C 34144.4 hPa WSW 28.5 km/h 49.2 km/h 89 % 20.32 mm
18:55 -11.9 °C -12.8 °C 34144.4 hPa SW 23 km/h 46.7 km/h 90 % 25.4 mm
19:01 -12 °C -12.9 °C 34144.4 hPa WSW 20.9 km/h 54.4 km/h 90 % 33.02 mm
19:07 -12.1 °C -13 °C 34154.6 hPa WSW 38.8 km/h 57 km/h 89 % 38.1 mm
19:15 -12.1 °C -13 °C 34164.7 hPa West 38.8 km/h 64.7 km/h 89 % 38.1 mm
19:23 -12.1 °C -13 °C 34164.7 hPa WSW 20.9 km/h 36.2 km/h 90 % 38.1 mm
19:27 -12.2 °C -13.1 °C 34164.7 hPa WSW 10.3 km/h 41.4 km/h 90 % 38.1 mm
19:33 -12.2 °C -12.9 °C 34164.7 hPa SSW 20.9 km/h 36.2 km/h 91 % 38.1 mm
19:41 -12.3 °C -12.9 °C 34164.7 hPa WSW 20.9 km/h 23.3 km/h 92 % 38.1 mm
19:45 -12.3 °C -12.9 °C 34164.7 hPa SW 12.7 km/h 20.8 km/h 92 % 33.02 mm
19:51 -12.3 °C -13 °C 34164.7 hPa West 17.9 km/h 33.6 km/h 92 % 38.1 mm
19:53 -12.3 °C -12.9 °C 34164.7 hPa SW 12.7 km/h 25.9 km/h 93 % 45.72 mm
19:59 -12.3 °C -12.9 °C 34178.3 hPa WSW 15.6 km/h 38.8 km/h 93 % 50.8 mm
20:01 -12.3 °C -12.8 °C 34164.7 hPa SW 44.1 km/h 44.1 km/h 94 % 50.8 mm
20:07 -12.3 °C -12.9 °C 34164.7 hPa SW 26.2 km/h 44.1 km/h 93 % 58.42 mm
20:13 -12.4 °C -13 °C 34178.3 hPa WSW 49.2 km/h 59.5 km/h 93 % 58.42 mm
20:15 -12.4 °C -13.1 °C 34178.3 hPa WSW 44.1 km/h 59.5 km/h 92 % 58.42 mm
20:21 -12.4 °C -13.1 °C 34188.4 hPa WSW 51.5 km/h 51.8 km/h 92 % 58.42 mm
20:27 -12.4 °C -13.1 °C 34188.4 hPa SSW 41.7 km/h 51.8 km/h 92 % 58.42 mm
20:33 -12.5 °C -13.3 °C 34188.4 hPa WSW 33.6 km/h 49.2 km/h 91 % 63.5 mm
20:39 -12.6 °C -13.3 °C 34198.6 hPa WSW 28.5 km/h 57 km/h 91 % 63.5 mm
20:47 -12.6 °C -13.3 °C 34198.6 hPa SSW 38.8 km/h 59.5 km/h 91 % 58.42 mm
20:53 -12.6 °C -13.4 °C 34212.1 hPa SW 33.6 km/h 69.8 km/h 91 % 38.1 mm
20:59 -12.6 °C -13.4 °C 34212.1 hPa SW 33.6 km/h 54.4 km/h 91 % 33.02 mm
21:05 -12.7 °C -13.6 °C 34212.1 hPa SSW 56.6 km/h 64.7 km/h 90 % 20.32 mm
21:11 -12.7 °C -13.7 °C 34212.1 hPa WSW 31.4 km/h 57 km/h 88 % 12.7 mm
21:17 -12.7 °C -13.7 °C 34212.1 hPa SW 31.4 km/h 51.8 km/h 89 % 12.7 mm
21:23 -12.8 °C -13.7 °C 34212.1 hPa WSW 31.4 km/h 46.7 km/h 89 % 12.7 mm
21:29 -12.8 °C -13.8 °C 34222.3 hPa West 28.5 km/h 54.4 km/h 89 % 7.62 mm
21:35 -12.9 °C -13.9 °C 34222.3 hPa West 20.9 km/h 44.1 km/h 88 % 12.7 mm
21:41 -12.9 °C -13.8 °C 34222.3 hPa West 23 km/h 49.2 km/h 90 % 12.7 mm
21:47 -13 °C -13.8 °C 34235.8 hPa West 20.9 km/h 33.6 km/h 91 % 12.7 mm
21:51 -13 °C -13.7 °C 34235.8 hPa SW 17.9 km/h 33.6 km/h 92 % 12.7 mm
21:57 -13.1 °C -13.7 °C 34222.3 hPa SSW 20.9 km/h 38.8 km/h 92 % 12.7 mm
22:03 -13 °C -13.8 °C 34235.8 hPa SW 28.5 km/h 46.7 km/h 91 % 7.62 mm
22:09 -12.9 °C -13.7 °C 34235.8 hPa SW 31.4 km/h 38.8 km/h 91 % 7.62 mm
22:15 -12.9 °C -13.7 °C 34235.8 hPa West 15.6 km/h 31.1 km/h 91 % 7.62 mm
22:21 -12.9 °C -13.8 °C 34246 hPa SW 38.8 km/h 44.1 km/h 90 % 7.62 mm
22:27 -12.9 °C -13.8 °C 34246 hPa WSW 33.6 km/h 51.8 km/h 90 % 7.62 mm
22:33 -12.9 °C -13.8 °C 34246 hPa SSW 23 km/h 33.6 km/h 90 % 0 mm
22:39 -12.9 °C -13.8 °C 34256.2 hPa WSW 41.7 km/h 41.7 km/h 89 % 0 mm
22:45 -12.9 °C -13.8 °C 34256.2 hPa WSW 46.3 km/h 51.8 km/h 89 % 0 mm
22:51 -12.9 °C -13.9 °C 34256.2 hPa WSW 17.9 km/h 31.1 km/h 89 % 0 mm
22:57 -13 °C -13.9 °C 34256.2 hPa WSW 36.5 km/h 51.8 km/h 89 % 0 mm
23:03 -13 °C -14.1 °C 34256.2 hPa SW 23 km/h 36.2 km/h 88 % 0 mm
23:09 -13.1 °C -14.1 °C 34269.7 hPa WNW 17.9 km/h 44.1 km/h 88 % 0 mm
23:15 -13.1 °C -14.2 °C 34269.7 hPa West 15.6 km/h 36.2 km/h 88 % 0 mm
23:21 -13.1 °C -14.2 °C 34269.7 hPa WSW 12.7 km/h 41.4 km/h 88 % 0 mm
23:27 -13.1 °C -14.2 °C 34269.7 hPa WSW 15.6 km/h 36.2 km/h 88 % 0 mm
23:33 -13.1 °C -14.2 °C 34269.7 hPa West 26.2 km/h 33.6 km/h 88 % 0 mm
23:39 -13.1 °C -14.2 °C 34269.7 hPa WSW 23 km/h 49.2 km/h 87 % 0 mm
23:43 -13.1 °C -14.2 °C 34279.9 hPa SW 26.2 km/h 49.2 km/h 87 % 0 mm
23:49 -13.2 °C -14.3 °C 34279.9 hPa West 36.5 km/h 38.8 km/h 87 % 0 mm
23:55 -13.2 °C -14.3 °C 34279.9 hPa WSW 31.4 km/h 46.7 km/h 87 % 0 mm
Meteo18
Compliments of Weather Underground - 4 mb

Script developed by  Jim McMurry - jmcmurry@mwt.net Adapted for the template by  Wim van der Kuil - Leuven-Template.eu

You find our weather info also at:

European Weather Network

Weather Underground

Equipment we use:

Weather-station
Davis Vue

Weather-program
Meteobridge

Weather-server
Raspberry PI 2 B+

Provider
1 and 1

Davis Vue

Meteobridge

Raspberry PI 2 B+

1 and 1